Location: Banios
(43.0451°N, 0.2335°E)
Time: 13:25:13
(UTC+00:00)

CZ-2C R/B - Pass Details

Date: 25 January 2021
Orbit: 785 x 870 km, 98.2° (Epoch: 26 February)

Event Time Altitude Azimuth Distance (km) Brightness Sun altitude
Rises 05:30:52 0° 140° (SE) 3,286 6.5 -20.0°
Reaches altitude 10° 05:33:20 10° 132° (SE) 2,370 5.8 -19.6°
Maximum altitude 05:38:03 36° 67° (ENE) 1,275 4.1 -18.7°
Drops below altitude 10° 05:42:53 10° 3° (N) 2,430 5.0 -17.9°
Sets 05:45:26 0° 355° (N) 3,382 5.7 -17.4°
